Regional Weather Roundup
Issued by NWS

Home | Current Version | Previous Version | Graphics & Text | Print | Product List | Glossary Off
Versions: 1 2 3 4 5 6 7 8 9 10 11 12 13 14 15 16 17 18 19 20 21 22 23 24 25 26 27 28 29 30 31 32 33 34 35 36 37 38 39 40 41 42 43 44 45 46 47 48 49 50

000
ASUS43 KTOP 230859
RWRKS

WEATHER ROUNDUP FOR KANSAS
NATIONAL WEATHER SERVICE GOODLAND KS
400 AM CDT THU MAR 23 2017

NOTE:  "FAIR" INDICATES FEW OR NO CLOUDS BELOW 12,000 FEET WITH NO
SIGNIFICANT WEATHER AND/OR OBSTRUCTIONS TO VISIBILITY.

KSZ001>006-013>018-027>032-041>047-231000-
NORTHWEST KANSAS

CITY           SKY/WX    TMP DP  RH WIND       PRES   REMARKS
GOODLAND       CLOUDY    44  42  93 S21       29.79F
HAYS             N/A     51  44  77 SE13      29.91F
HILL CITY      CLOUDY    49  42  77 S12       29.89F
RUSSELL        CLOUDY    51  44  77 SE17      29.91F
$$

KSZ061>065-074>080-084>089-231000-
SOUTHWEST KANSAS

CITY           SKY/WX    TMP DP  RH WIND       PRES   REMARKS
DODGE CITY     CLOUDY    54  52  93 S20       29.89F FOG
ELKHART          N/A     48  40  74 S12         N/A
GARDEN CITY    MOCLDY    50  49  96 SE15      29.86F FOG
GREAT BEND     CLOUDY    53  48  83 SE21      29.92F
LIBERAL        CLEAR     52  43  71 SE12      29.88F
$$

KSZ066>073-081>083-090>101-231000-
SOUTHEAST KANSAS

CITY           SKY/WX    TMP DP  RH WIND       PRES   REMARKS
CHANUTE        CLOUDY    56  41  57 SE13      30.07F
COFFEYVILLE    CLOUDY    57  46  66 SE9       30.06F
HUTCHINSON     CLOUDY    55  48  77 SE15      29.97F
MEDICINE LODGE   N/A     55  47  74 SE12      29.93F
NEWTON         CLOUDY    53  46  77 SE15      30.01F
PARSONS        CLOUDY    58  44  60 SE9       30.07F
WICHITA INTL   CLOUDY    56  48  74 SE12      29.99F
WICHITA JABRA  CLOUDY    54  47  77 SE10      30.01F
WINFIELD       CLOUDY    58  47  66 SE15      30.01F
$$

KSZ007>012-019>026-033>040-048>060-102>105-231000-
NORTHEAST KANSAS

CITY           SKY/WX    TMP DP  RH WIND       PRES   REMARKS
CONCORDIA      CLOUDY    51  36  56 SE14      29.98F
EMPORIA        CLOUDY    54  42  64 SE15      30.04F
LAWRENCE       CLOUDY    52  32  46 E13       30.10F
MANHATTAN      LGT RAIN  47  44  90 E8        30.05S FOG
OLATHE IND     CLOUDY    51  31  46 SE13      30.10F
OLATHE EXE     CLOUDY    50  33  52 SE12      30.10F
SALINA         CLOUDY    53  47  79 SE15      30.00F
TOPEKA BILLARD CLOUDY    52  34  50 E12       30.07F
TOPEKA FORBES  LGT RAIN  53  38  56 SE10      30.07F
$$




USA.gov is the U.S. government's official web portal to all federal, state and local government web resources and services.